Regional Weather Roundup
Issued by NWS

Home | Current Version | Previous Version | Graphics & Text | Print | Product List | Glossary On
Versions: 1 2 3 4 5 6 7 8 9 10 11 12 13 14 15 16 17 18 19 20 21 22 23 24 25 26 27 28 29 30 31 32 33 34 35 36 37 38 39 40 41 42 43 44 45 46 47 48 49 50
000
ASUS43 KIND 060759
RWRIN

WEATHER ROUNDUP FOR INDIANA
NATIONAL WEATHER SERVICE INDIANAPOLIS IN
400 AM EDT WED MAY 06 2015

NOTE: "FAIR" INDICATES FEW OR NO CLOUDS BELOW 12,000 FEET WITH NO
SIGNIFICANT WEATHER AND/OR OBSTRUCTIONS TO VISIBILITY.

* - STATION DOES NOT REPORT WEATHER SUCH AS PRECIPITATION OR FOG.

+ - STATION NOT QUALITY CONTROLLED BY THE NATIONAL WEATHER SERVICE.
    USE DATA WITH CAUTION...ESPECIALLY DEWPOINT AND RELATIVE
    HUMIDITY OBSERVATIONS.

INZ001>003-010>013-019-020-060900-
NORTHWEST INDIANA

CITY           SKY/WX    TMP DP  RH WIND       PRES   REMARKS

$$

LMZ046-743>745-060900-
SOUTHERN LAKE MICHIGAN

STATION/POSITION TIME  TEMP    WIND        PRES    WAVE
                       AIR SEA DIR/SP/G            HT
                 (UTC) (F)     (DEG/KT/KT) (MB)    (FT)
BURNS HARBOR     0700   54      50/  1/  4 1022.7F
MICHIGAN CITY    0700   56      90/  3/  5   N/A
5NW MICH CITY    0700   53 50   90/  4/  6   N/A     1

$$

INZ004-005-014>016-021>024-060900-
NORTH CENTRAL INDIANA

CITY           SKY/WX    TMP DP  RH WIND       PRES   REMARKS
GOSHEN         CLOUDY    54  52  93 E5        30.20F FOG
PERU/GRISSOM   CLEAR     55  54  94 E7        30.18S FOG
SOUTH BEND     CLOUDY    55  54  96 MISG      30.20S FOG

$$

INZ006>009-017-018-025>027-060900-
NORTHEAST INDIANA

CITY           SKY/WX    TMP DP  RH WIND       PRES   REMARKS
ANGOLA *+      CLOUDY    52  39  62 E6        30.21F VSB 1/4
FORT WAYNE     CLOUDY    53  52  96 E9        30.22S FOG

$$

INZ028-029-035-036-043>045-051>053-060900-
WEST CENTRAL INDIANA

CITY           SKY/WX    TMP DP  RH WIND       PRES   REMARKS
CRAWFORDSVL +  PTCLDY    58  49  70 CALM      30.17S
GREENCASTLE +  CLEAR     61  50  67 CALM      30.18S
LAFAYETTE      CLEAR     57  57 100 E5        30.16S FOG
TERRE HAUTE    CLEAR     58  53  84 E5        30.17S

$$

INZ030>032-037>040-046>048-054>057-064-065-060900-
CENTRAL INDIANA

CITY           SKY/WX    TMP DP  RH WIND       PRES   REMARKS
GREENWOOD *+   PTCLDY    61  54  77 CALM      30.19S
INDIANAPOLIS   MOCLDY    65  52  62 CALM      30.16F
-EAGLE CREEK   PTCLDY    60  56  86 CALM      30.17S
KOKOMO *+      CLEAR     54  52  94 E6        30.19S
MT COMFORT *+  PTCLDY    59  52  77 NE3       30.19S
SHELBYVILLE    PTCLDY    59  53  80 SE5       30.18S

$$

INZ033-034-041-042-049-050-058-059-060900-
EAST CENTRAL INDIANA

CITY           SKY/WX    TMP DP  RH WIND       PRES   REMARKS
MUNCIE         PTCLDY    55  53  93 E5        30.20S FOG

$$

INZ060-061-067>069-081>083-085>088-060900-
SOUTHWEST INDIANA

CITY           SKY/WX    TMP DP  RH WIND       PRES   REMARKS
EVANSVILLE     CLEAR     60  55  83 CALM      30.17F
HUNTINGBURG *+ CLEAR     59  52  77 SE5       30.18S

$$

INZ062-063-066-070>080-084-089>092-060900-
SOUTH CENTRAL AND SOUTHEAST INDIANA

CITY           SKY/WX    TMP DP  RH WIND       PRES   REMARKS
BLOOMINGTON    PTCLDY    57  53  86 CALM      30.18F
MADISON *+     CLEAR     57  54  88 CALM      30.22S
SEYMOUR +      CLEAR     57  55  94 CALM      30.19S

$$




USA.gov is the U.S. government's official web portal to all federal, state and local government web resources and services.